Time,TemperatureF,DewpointF,PressureIn,WindDirection,WindDirectionDegrees,WindSpeedMPH,WindSpeedGustMPH,Humidity,HourlyPrecipIn,Conditions,Clouds,dailyrainin,SoftwareType,DateUTC
2013-02-16 00:00:00,21.1,17.6,30.10,WNW,283,0.0,0.0,86,0.00,,,0.00,VWS V14.01,2013-02-16 05:00:00,
2013-02-16 00:01:00,21.1,17.6,30.10,WNW,283,0.0,0.0,86,0.00,,,0.00,VWS V14.01,2013-02-16 05:01:00,
2013-02-16 00:05:00,21.1,17.6,30.10,WNW,283,0.0,0.0,86,0.00,,,0.00,VWS V14.01,2013-02-16 05:05:00,
2013-02-16 00:10:00,21.1,17.6,30.10,WNW,283,0.0,0.0,86,0.00,,,0.00,VWS V14.01,2013-02-16 05:10:00,
2013-02-16 00:15:00,21.0,17.5,30.10,WNW,284,0.0,0.0,86,0.00,,,0.00,VWS V14.01,2013-02-16 05:15:00,
2013-02-16 00:20:00,20.9,17.4,30.10,WNW,284,0.0,0.0,86,0.00,,,0.00,VWS V14.01,2013-02-16 05:20:00,
2013-02-16 00:24:00,20.9,17.4,30.10,WNW,284,0.0,0.0,86,0.00,,,0.00,VWS V14.01,2013-02-16 05:24:00,
2013-02-16 00:29:00,20.9,17.4,30.10,WNW,284,0.0,0.0,86,0.00,,,0.00,VWS V14.01,2013-02-16 05:29:00,
2013-02-16 00:34:00,20.9,17.4,30.10,WNW,284,0.0,0.0,86,0.00,,,0.00,VWS V14.01,2013-02-16 05:34:00,
2013-02-16 00:39:00,20.8,17.3,30.10,WNW,284,0.0,0.0,86,0.00,,,0.00,VWS V14.01,2013-02-16 05:39:00,
2013-02-16 00:45:00,20.8,17.3,30.10,WNW,284,0.0,0.0,86,0.00,,,0.00,VWS V14.01,2013-02-16 05:45:00,
2013-02-16 00:50:00,20.7,17.2,30.10,WNW,284,0.0,0.0,86,0.00,,,0.00,VWS V14.01,2013-02-16 05:50:00,
2013-02-16 00:55:00,20.7,17.2,30.09,WNW,284,0.0,0.0,86,0.00,,,0.00,VWS V14.01,2013-02-16 05:55:00,
2013-02-16 01:00:00,20.7,17.2,30.09,WNW,284,0.0,0.0,86,0.00,,,0.00,VWS V14.01,2013-02-16 06:00:00,
2013-02-16 01:05:00,20.6,17.1,30.09,WNW,284,0.0,0.0,86,0.00,,OVC065,0.00,VWS V14.01,2013-02-16 06:05:00,
2013-02-16 01:10:00,20.5,17.0,30.09,WNW,284,0.0,0.0,86,0.00,,OVC065,0.00,VWS V14.01,2013-02-16 06:10:00,
2013-02-16 01:15:00,20.4,16.9,30.09,WNW,284,0.0,0.0,86,0.00,,OVC065,0.00,VWS V14.01,2013-02-16 06:15:00,
2013-02-16 01:20:00,20.3,16.8,30.09,WNW,284,0.0,0.0,86,0.00,,OVC065,0.00,VWS V14.01,2013-02-16 06:20:00,
2013-02-16 01:25:00,20.1,16.6,30.09,WNW,284,0.0,0.0,86,0.00,,OVC065,0.00,VWS V14.01,2013-02-16 06:25:00,
2013-02-16 01:30:00,20.0,16.5,30.09,WNW,284,0.0,0.0,86,0.00,,OVC065,0.00,VWS V14.01,2013-02-16 06:30:00,
2013-02-16 01:35:00,19.8,16.3,30.09,WNW,284,0.0,0.0,86,0.00,,OVC065,0.00,VWS V14.01,2013-02-16 06:35:00,
2013-02-16 01:40:00,19.6,16.1,30.08,WNW,284,0.0,0.0,86,0.00,,OVC065,0.00,VWS V14.01,2013-02-16 06:40:00,
2013-02-16 01:45:00,19.4,15.9,30.08,West,280,0.0,0.0,86,0.00,,OVC065,0.00,VWS V14.01,2013-02-16 06:45:00,
2013-02-16 01:50:00,19.3,15.8,30.08,West,274,0.0,0.0,86,0.00,,OVC065,0.00,VWS V14.01,2013-02-16 06:50:00,
2013-02-16 01:55:00,19.1,15.6,30.08,West,274,0.0,0.0,86,0.00,,OVC065,0.00,VWS V14.01,2013-02-16 06:55:00,
2013-02-16 02:00:00,19.0,15.5,30.08,West,274,0.0,0.0,86,0.00,,OVC065,0.00,VWS V14.01,2013-02-16 07:00:00,
2013-02-16 02:05:00,18.9,15.4,30.08,West,274,0.0,0.0,86,0.00,,OVC050,0.00,VWS V14.01,2013-02-16 07:05:00,
2013-02-16 02:10:00,18.7,15.2,30.08,West,274,0.0,0.0,86,0.00,,OVC050,0.00,VWS V14.01,2013-02-16 07:10:00,
2013-02-16 02:15:00,18.6,15.1,30.07,West,274,0.0,0.0,86,0.00,,OVC050,0.00,VWS V14.01,2013-02-16 07:15:00,
2013-02-16 02:20:00,18.5,15.0,30.07,West,274,0.0,0.0,86,0.00,,OVC050,0.00,VWS V14.01,2013-02-16 07:20:00,
2013-02-16 02:25:00,18.3,14.8,30.07,West,274,0.0,0.0,86,0.00,,OVC050,0.00,VWS V14.01,2013-02-16 07:25:00,
2013-02-16 02:30:00,18.2,14.7,30.07,West,274,0.0,0.0,86,0.00,,OVC050,0.00,VWS V14.01,2013-02-16 07:30:00,
2013-02-16 02:35:00,18.0,14.5,30.08,West,274,0.0,0.0,86,0.00,,OVC050,0.00,VWS V14.01,2013-02-16 07:35:00,
2013-02-16 02:40:00,17.9,14.4,30.07,West,274,0.0,0.0,86,0.00,,OVC050,0.00,VWS V14.01,2013-02-16 07:40:00,
2013-02-16 02:45:00,17.8,14.3,30.07,West,274,0.0,0.0,86,0.00,,OVC050,0.00,VWS V14.01,2013-02-16 07:45:00,
2013-02-16 02:51:00,17.7,14.2,30.07,West,274,0.0,0.0,86,0.00,,OVC050,0.00,VWS V14.01,2013-02-16 07:51:00,
2013-02-16 02:56:00,17.6,14.1,30.07,West,274,0.0,0.0,86,0.00,,OVC050,0.00,VWS V14.01,2013-02-16 07:56:00,
2013-02-16 03:01:00,17.5,14.0,30.07,West,274,0.0,0.0,86,0.00,,OVC050,0.00,VWS V14.01,2013-02-16 08:01:00,
2013-02-16 03:06:00,17.5,14.0,30.07,West,274,0.0,0.0,86,0.00,,OVC060,0.00,VWS V14.01,2013-02-16 08:06:00,
2013-02-16 03:11:00,17.5,14.0,30.07,West,274,0.0,0.0,86,0.00,,OVC060,0.00,VWS V14.01,2013-02-16 08:11:00,
2013-02-16 03:16:00,17.5,14.0,30.06,West,274,0.0,0.0,86,0.00,,OVC060,0.00,VWS V14.01,2013-02-16 08:16:00,
2013-02-16 03:21:00,17.6,14.1,30.07,West,274,0.0,0.0,86,0.00,,OVC060,0.00,VWS V14.01,2013-02-16 08:21:00,
2013-02-16 03:26:00,17.7,14.2,30.06,West,274,0.0,0.0,86,0.00,,OVC060,0.00,VWS V14.01,2013-02-16 08:26:00,
2013-02-16 03:31:00,17.8,14.3,30.06,West,274,0.0,0.0,86,0.00,,OVC060,0.00,VWS V14.01,2013-02-16 08:31:00,
2013-02-16 03:36:00,17.9,14.7,30.06,West,274,0.0,0.0,87,0.00,,OVC060,0.00,VWS V14.01,2013-02-16 08:36:00,
2013-02-16 03:41:00,18.0,14.8,30.06,West,274,0.0,0.0,87,0.00,,OVC060,0.00,VWS V14.01,2013-02-16 08:41:00,
2013-02-16 03:46:00,18.1,14.9,30.06,West,274,0.0,0.0,87,0.00,,OVC060,0.00,VWS V14.01,2013-02-16 08:46:00,
2013-02-16 03:51:00,18.2,15.0,30.06,West,274,0.0,0.0,87,0.00,,OVC060,0.00,VWS V14.01,2013-02-16 08:51:00,
2013-02-16 03:56:00,18.4,15.2,30.06,West,274,0.0,0.0,87,0.00,,OVC060,0.00,VWS V14.01,2013-02-16 08:56:00,
2013-02-16 04:01:00,18.5,15.3,30.05,West,274,0.0,0.0,87,0.00,,OVC060,0.00,VWS V14.01,2013-02-16 09:01:00,
2013-02-16 04:06:00,18.6,15.4,30.05,West,274,0.0,0.0,87,0.00,,OVC060,0.00,VWS V14.01,2013-02-16 09:06:00,
2013-02-16 04:11:00,18.6,15.4,30.05,West,274,0.0,0.0,87,0.00,,OVC060,0.00,VWS V14.01,2013-02-16 09:11:00,
2013-02-16 04:16:00,18.7,15.5,30.05,West,274,0.0,0.0,87,0.00,,OVC060,0.00,VWS V14.01,2013-02-16 09:16:00,
2013-02-16 04:21:00,18.9,15.7,30.05,West,274,0.0,0.0,87,0.00,,OVC060,0.00,VWS V14.01,2013-02-16 09:21:00,
2013-02-16 04:26:00,19.0,15.8,30.05,West,274,0.0,0.0,87,0.00,,OVC060,0.00,VWS V14.01,2013-02-16 09:26:00,
2013-02-16 04:31:00,19.1,16.1,30.05,West,274,0.0,0.0,88,0.00,,OVC060,0.00,VWS V14.01,2013-02-16 09:31:00,
2013-02-16 04:36:00,19.2,16.2,30.05,West,274,0.0,0.0,88,0.00,,OVC060,0.00,VWS V14.01,2013-02-16 09:36:00,
2013-02-16 04:42:00,19.4,16.4,30.05,West,273,0.0,0.0,88,0.00,,OVC060,0.00,VWS V14.01,2013-02-16 09:42:00,
2013-02-16 04:47:00,19.4,16.4,30.05,West,273,0.0,0.0,88,0.00,,OVC060,0.00,VWS V14.01,2013-02-16 09:47:00,
2013-02-16 04:52:00,19.5,16.5,30.05,West,273,0.0,0.0,88,0.00,,OVC060,0.00,VWS V14.01,2013-02-16 09:52:00,
2013-02-16 04:57:00,19.6,16.6,30.05,West,273,0.0,0.0,88,0.00,,OVC060,0.00,VWS V14.01,2013-02-16 09:57:00,
2013-02-16 05:02:00,19.6,16.6,30.04,West,273,0.0,0.0,88,0.00,,,0.00,VWS V14.01,2013-02-16 10:02:00,
2013-02-16 05:07:00,19.6,16.6,30.04,West,273,0.0,0.0,88,0.00,,,0.00,VWS V14.01,2013-02-16 10:07:00,
2013-02-16 05:12:00,19.7,16.7,30.04,West,273,0.0,0.0,88,0.00,,,0.00,VWS V14.01,2013-02-16 10:12:00,
2013-02-16 05:17:00,19.8,16.8,30.05,West,273,0.0,0.0,88,0.00,,,0.00,VWS V14.01,2013-02-16 10:17:00,
2013-02-16 05:22:00,19.9,16.9,30.05,West,273,0.0,0.0,88,0.00,,,0.00,VWS V14.01,2013-02-16 10:22:00,
2013-02-16 05:27:00,19.9,16.9,30.05,NNW,341,0.0,3.0,88,0.00,,,0.00,VWS V14.01,2013-02-16 10:27:00,
2013-02-16 05:32:00,19.8,16.8,30.05,NW,313,0.0,1.0,88,0.00,,,0.00,VWS V14.01,2013-02-16 10:32:00,
2013-02-16 05:37:00,19.6,16.6,30.05,NW,324,3.0,5.0,88,0.00,,,0.00,VWS V14.01,2013-02-16 10:37:00,
2013-02-16 05:42:00,19.3,16.3,30.05,NNW,332,0.0,5.0,88,0.00,,,0.00,VWS V14.01,2013-02-16 10:42:00,
2013-02-16 05:47:00,19.0,15.8,30.05,NW,313,2.0,3.0,87,0.00,,,0.00,VWS V14.01,2013-02-16 10:47:00,
2013-02-16 05:52:00,18.8,15.6,30.05,NW,322,3.0,10.0,87,0.00,,,0.00,VWS V14.01,2013-02-16 10:52:00,
2013-02-16 05:57:00,18.5,15.3,30.05,NW,320,2.0,2.0,87,0.00,,,0.00,VWS V14.01,2013-02-16 10:57:00,
2013-02-16 06:02:00,18.2,15.0,30.05,NNW,335,0.0,1.0,87,0.00,,,0.00,VWS V14.01,2013-02-16 11:02:00,
2013-02-16 06:07:00,18.0,14.8,30.05,NNW,328,0.0,3.0,87,0.00,,,0.00,VWS V14.01,2013-02-16 11:07:00,
2013-02-16 06:12:00,17.9,14.7,30.05,NW,319,0.0,1.0,87,0.00,,,0.00,VWS V14.01,2013-02-16 11:12:00,
2013-02-16 06:17:00,17.8,14.3,30.05,NW,317,1.0,2.0,86,0.00,,,0.00,VWS V14.01,2013-02-16 11:17:00,
2013-02-16 06:22:00,17.7,14.2,30.05,NW,315,0.0,0.0,86,0.00,,,0.00,VWS V14.01,2013-02-16 11:22:00,
2013-02-16 06:27:00,17.5,14.0,30.05,NNW,332,0.0,0.0,86,0.00,,,0.00,VWS V14.01,2013-02-16 11:27:00,
2013-02-16 06:32:00,17.5,14.0,30.05,NW,307,0.0,0.0,86,0.00,,,0.00,VWS V14.01,2013-02-16 11:32:00,
2013-02-16 06:37:00,17.4,13.9,30.05,NW,309,0.0,0.0,86,0.00,,,0.00,VWS V14.01,2013-02-16 11:37:00,
2013-02-16 06:43:00,17.3,13.6,30.05,NW,308,0.0,0.0,85,0.00,,,0.00,VWS V14.01,2013-02-16 11:43:00,
2013-02-16 06:48:00,17.2,13.5,30.05,NW,307,0.0,0.0,85,0.00,,,0.00,VWS V14.01,2013-02-16 11:48:00,
2013-02-16 06:53:00,17.2,13.5,30.04,NW,318,0.0,0.0,85,0.00,,,0.00,VWS V14.01,2013-02-16 11:53:00,
2013-02-16 06:58:00,17.1,13.4,30.05,NW,305,0.0,0.0,85,0.00,,,0.00,VWS V14.01,2013-02-16 11:58:00,
2013-02-16 07:03:00,17.1,13.4,30.05,NW,304,0.0,0.0,85,0.00,,,0.00,VWS V14.01,2013-02-16 12:03:00,
2013-02-16 07:08:00,17.1,13.4,30.05,WNW,302,0.0,0.0,85,0.00,,,0.00,VWS V14.01,2013-02-16 12:08:00,
2013-02-16 07:13:00,17.1,13.4,30.05,NNW,328,1.0,2.0,85,0.00,,,0.00,VWS V14.01,2013-02-16 12:13:00,
2013-02-16 07:18:00,17.1,13.4,30.05,NNW,328,0.0,0.0,85,0.00,,,0.00,VWS V14.01,2013-02-16 12:18:00,
2013-02-16 07:23:00,17.1,13.4,30.05,NW,312,0.0,0.0,85,0.00,,,0.00,VWS V14.01,2013-02-16 12:23:00,
2013-02-16 07:28:00,17.0,13.3,30.05,NW,316,0.0,0.0,85,0.00,,,0.00,VWS V14.01,2013-02-16 12:28:00,
2013-02-16 07:33:00,17.1,13.4,30.06,NW,313,0.0,0.0,85,0.00,,,0.00,VWS V14.01,2013-02-16 12:33:00,
2013-02-16 07:38:00,17.0,13.3,30.06,NW,312,0.0,0.0,85,0.00,,,0.00,VWS V14.01,2013-02-16 12:38:00,
2013-02-16 07:43:00,17.0,13.3,30.06,WNW,297,0.0,0.0,85,0.00,,,0.00,VWS V14.01,2013-02-16 12:43:00,
2013-02-16 07:48:00,17.0,13.3,30.06,WNW,302,0.0,0.0,85,0.00,,,0.00,VWS V14.01,2013-02-16 12:48:00,
2013-02-16 07:53:00,17.0,13.3,30.06,NW,304,2.0,2.0,85,0.00,,,0.00,VWS V14.01,2013-02-16 12:53:00,
2013-02-16 07:58:00,17.0,13.3,30.06,NW,305,0.0,2.0,85,0.00,,,0.00,VWS V14.01,2013-02-16 12:58:00,
2013-02-16 08:03:00,17.0,13.3,30.06,WNW,299,0.0,0.0,85,0.00,,,0.00,VWS V14.01,2013-02-16 13:03:00,
2013-02-16 08:08:00,17.1,13.4,30.06,WNW,295,0.0,0.0,85,0.00,,,0.00,VWS V14.01,2013-02-16 13:08:00,
2013-02-16 08:14:00,17.0,13.3,30.06,WNW,295,0.0,0.0,85,0.00,,,0.00,VWS V14.01,2013-02-16 13:14:00,
2013-02-16 08:19:00,17.0,13.3,30.06,WNW,303,0.0,0.0,85,0.00,,,0.00,VWS V14.01,2013-02-16 13:19:00,
2013-02-16 08:24:00,17.1,13.4,30.06,NW,309,1.0,3.0,85,0.00,,,0.00,VWS V14.01,2013-02-16 13:24:00,
2013-02-16 08:29:00,17.1,13.4,30.06,WNW,299,0.0,1.0,85,0.00,,,0.00,VWS V14.01,2013-02-16 13:29:00,
2013-02-16 08:34:00,17.2,13.5,30.06,NW,307,1.0,1.0,85,0.00,,,0.00,VWS V14.01,2013-02-16 13:34:00,
2013-02-16 08:39:00,17.3,13.6,30.06,WNW,301,1.0,2.0,85,0.00,,,0.00,VWS V14.01,2013-02-16 13:39:00,
2013-02-16 08:44:00,17.4,13.7,30.06,NW,308,0.0,1.0,85,0.00,,,0.00,VWS V14.01,2013-02-16 13:44:00,
2013-02-16 08:49:00,17.5,13.8,30.06,NW,311,0.0,1.0,85,0.00,,,0.00,VWS V14.01,2013-02-16 13:49:00,
2013-02-16 08:54:00,17.7,14.0,30.06,WNW,303,0.0,2.0,85,0.00,,,0.00,VWS V14.01,2013-02-16 13:54:00,
2013-02-16 08:59:00,17.9,14.2,30.06,NW,312,0.0,2.0,85,0.00,,,0.00,VWS V14.01,2013-02-16 13:59:00,
2013-02-16 09:04:00,18.0,14.3,30.06,NW,308,0.0,2.0,85,0.00,,,0.00,VWS V14.01,2013-02-16 14:04:00,
2013-02-16 09:09:00,18.1,14.4,30.06,NNW,334,0.0,2.0,85,0.00,,,0.00,VWS V14.01,2013-02-16 14:09:00,
2013-02-16 09:14:00,18.2,14.5,30.06,WNW,290,2.0,3.0,85,0.00,,BKN060,0.00,VWS V14.01,2013-02-16 14:14:00,
2013-02-16 09:19:00,18.3,14.6,30.07,WNW,283,3.0,4.0,85,0.00,,,0.00,VWS V14.01,2013-02-16 14:19:00,
2013-02-16 09:24:00,18.3,14.6,30.06,WNW,298,2.0,5.0,85,0.00,,,0.00,VWS V14.01,2013-02-16 14:24:00,
2013-02-16 09:29:00,18.3,14.6,30.06,WNW,286,3.0,5.0,85,0.00,,,0.00,VWS V14.01,2013-02-16 14:29:00,
2013-02-16 09:34:00,18.3,14.6,30.06,WNW,282,6.0,6.0,85,0.00,,,0.00,VWS V14.01,2013-02-16 14:34:00,
2013-02-16 09:39:00,18.3,14.6,30.06,NW,321,2.0,5.0,85,0.00,,,0.00,VWS V14.01,2013-02-16 14:39:00,
2013-02-16 09:44:00,18.4,14.6,30.06,WNW,301,7.0,7.0,85,0.00,,,0.00,VWS V14.01,2013-02-16 14:44:00,
2013-02-16 09:49:00,18.5,14.8,30.07,NW,305,6.0,14.0,85,0.00,,,0.00,VWS V14.01,2013-02-16 14:49:00,
2013-02-16 09:54:00,18.6,14.6,30.07,NW,313,1.0,11.0,84,0.00,,,0.00,VWS V14.01,2013-02-16 14:54:00,
2013-02-16 10:00:00,18.8,14.8,30.06,West,273,2.0,3.0,84,0.00,,,0.00,VWS V14.01,2013-02-16 15:00:00,
2013-02-16 10:05:00,19.0,15.0,30.07,NW,304,6.0,7.0,84,0.00,,,0.00,VWS V14.01,2013-02-16 15:05:00,
2013-02-16 10:10:00,19.1,14.8,30.06,NW,322,0.0,10.0,83,0.00,,,0.00,VWS V14.01,2013-02-16 15:10:00,
2013-02-16 10:15:00,19.0,14.7,30.07,West,267,4.0,7.0,83,0.00,,,0.00,VWS V14.01,2013-02-16 15:15:00,
2013-02-16 10:20:00,18.9,14.3,30.06,NW,324,2.0,4.0,82,0.00,,,0.00,VWS V14.01,2013-02-16 15:20:00,
2013-02-16 10:25:00,18.9,14.3,30.06,NW,325,1.0,4.0,82,0.00,,,0.00,VWS V14.01,2013-02-16 15:25:00,
2013-02-16 10:30:00,19.1,14.5,30.07,WNW,297,2.0,2.0,82,0.00,,,0.00,VWS V14.01,2013-02-16 15:30:00,
2013-02-16 10:35:00,19.2,14.6,30.06,WNW,303,0.0,2.0,82,0.00,,,0.00,VWS V14.01,2013-02-16 15:35:00,
2013-02-16 10:40:00,19.4,14.8,30.07,WNW,282,2.0,4.0,82,0.00,,,0.00,VWS V14.01,2013-02-16 15:40:00,
2013-02-16 10:45:00,19.5,14.6,30.07,WNW,292,2.0,9.0,81,0.00,,,0.00,VWS V14.01,2013-02-16 15:45:00,
2013-02-16 10:50:00,19.7,14.8,30.06,WNW,290,1.0,5.0,81,0.00,,,0.00,VWS V14.01,2013-02-16 15:50:00,
2013-02-16 10:55:00,19.7,14.8,30.06,NW,312,0.0,3.0,81,0.00,,,0.00,VWS V14.01,2013-02-16 15:55:00,
2013-02-16 11:00:00,19.9,15.0,30.06,NW,317,0.0,1.0,81,0.00,,,0.00,VWS V14.01,2013-02-16 16:00:00,
2013-02-16 11:05:00,19.9,15.0,30.07,NW,325,1.0,1.0,81,0.00,,,0.00,VWS V14.01,2013-02-16 16:05:00,
2013-02-16 11:10:00,20.0,14.8,30.06,WNW,299,1.0,2.0,80,0.00,,,0.00,VWS V14.01,2013-02-16 16:10:00,
2013-02-16 11:15:00,20.2,15.0,30.06,NW,319,0.0,3.0,80,0.00,,,0.00,VWS V14.01,2013-02-16 16:15:00,
2013-02-16 11:20:00,20.1,14.6,30.06,NNW,341,10.0,13.0,79,0.00,,,0.00,VWS V14.01,2013-02-16 16:20:00,
2013-02-16 11:25:00,20.0,14.6,30.06,NNW,328,2.0,11.0,79,0.00,,,0.00,VWS V14.01,2013-02-16 16:25:00,
2013-02-16 11:30:00,20.2,14.4,30.06,WNW,295,1.0,3.0,78,0.00,,,0.00,VWS V14.01,2013-02-16 16:30:00,
2013-02-16 11:35:00,20.9,14.8,30.06,NW,307,0.0,1.0,77,0.00,,,0.00,VWS V14.01,2013-02-16 16:35:00,
2013-02-16 11:40:00,21.6,14.9,30.06,West,270,0.0,2.0,75,0.00,,,0.00,VWS V14.01,2013-02-16 16:40:00,
2013-02-16 11:45:00,21.9,14.9,30.06,WNW,298,10.0,10.0,74,0.00,,,0.00,VWS V14.01,2013-02-16 16:45:00,
2013-02-16 11:51:00,21.5,14.5,30.06,WNW,289,1.0,1.0,74,0.00,,,0.00,VWS V14.01,2013-02-16 16:51:00,
2013-02-16 11:56:00,21.7,14.7,30.06,WNW,291,0.0,5.0,74,0.00,,,0.00,VWS V14.01,2013-02-16 16:56:00,
2013-02-16 12:01:00,21.5,14.2,30.06,West,273,2.0,3.0,73,0.00,,,0.00,VWS V14.01,2013-02-16 17:01:00,
2013-02-16 12:06:00,21.7,14.7,30.06,West,261,2.0,3.0,74,0.00,,,0.00,VWS V14.01,2013-02-16 17:06:00,
2013-02-16 12:11:00,22.5,14.9,30.06,WNW,303,1.0,3.0,72,0.00,,,0.00,VWS V14.01,2013-02-16 17:11:00,
2013-02-16 12:16:00,23.5,15.5,30.06,SW,234,0.0,2.0,71,0.00,,,0.00,VWS V14.01,2013-02-16 17:16:00,
2013-02-16 12:21:00,23.6,15.3,30.06,WNW,297,6.0,10.0,70,0.00,,,0.00,VWS V14.01,2013-02-16 17:21:00,
2013-02-16 12:26:00,22.3,14.0,30.06,WNW,291,5.0,9.0,70,0.00,,,0.00,VWS V14.01,2013-02-16 17:26:00,
2013-02-16 12:31:00,21.6,13.7,30.06,WNW,289,9.0,10.0,71,0.00,,,0.00,VWS V14.01,2013-02-16 17:31:00,
2013-02-16 12:36:00,21.1,13.5,30.06,NW,313,1.0,9.0,72,0.00,,,0.00,VWS V14.01,2013-02-16 17:36:00,
2013-02-16 12:41:00,21.0,14.0,30.06,WNW,282,0.0,1.0,74,0.00,,,0.00,VWS V14.01,2013-02-16 17:41:00,
2013-02-16 12:46:00,20.9,14.2,30.06,WSW,241,4.0,14.0,75,0.00,,,0.00,VWS V14.01,2013-02-16 17:46:00,
2013-02-16 12:51:00,21.3,14.9,30.05,WNW,299,7.0,10.0,76,0.00,,,0.00,VWS V14.01,2013-02-16 17:51:00,
2013-02-16 12:56:00,21.2,14.2,30.05,West,263,1.0,4.0,74,0.00,,,0.00,VWS V14.01,2013-02-16 17:56:00,
2013-02-16 13:01:00,21.1,14.1,30.05,West,259,4.0,5.0,74,0.00,,,0.00,VWS V14.01,2013-02-16 18:01:00,
2013-02-16 13:06:00,21.1,13.8,30.05,West,269,1.0,1.0,73,0.00,,,0.00,VWS V14.01,2013-02-16 18:06:00,
2013-02-16 13:11:00,22.3,14.3,30.05,NW,309,0.0,3.0,71,0.00,,BKN027,0.00,VWS V14.01,2013-02-16 18:11:00,
2013-02-16 13:16:00,23.2,14.6,30.05,WNW,295,3.0,3.0,69,0.00,,BKN027,0.00,VWS V14.01,2013-02-16 18:16:00,
2013-02-16 13:21:00,23.1,13.4,30.04,West,265,5.0,8.0,66,0.00,,BKN027,0.00,VWS V14.01,2013-02-16 18:21:00,
2013-02-16 13:26:00,22.5,12.9,30.04,West,267,12.0,12.0,66,0.00,,BKN027,0.00,VWS V14.01,2013-02-16 18:26:00,
2013-02-16 13:31:00,22.1,13.2,30.04,West,263,10.0,10.0,68,0.00,,BKN027,0.00,VWS V14.01,2013-02-16 18:31:00,
2013-02-16 13:36:00,22.0,13.4,30.04,West,267,0.0,10.0,69,0.00,,BKN027,0.00,VWS V14.01,2013-02-16 18:36:00,
2013-02-16 13:41:00,22.1,13.8,30.04,West,267,2.0,5.0,70,0.00,,BKN027,0.00,VWS V14.01,2013-02-16 18:41:00,
2013-02-16 13:47:00,22.4,14.1,30.04,WNW,289,1.0,3.0,70,0.00,,BKN027,0.00,VWS V14.01,2013-02-16 18:47:00,
2013-02-16 13:52:00,21.8,12.9,30.04,West,264,2.0,4.0,68,0.00,,BKN027,0.00,VWS V14.01,2013-02-16 18:52:00,
2013-02-16 13:57:00,21.6,12.7,30.04,West,269,2.0,2.0,68,0.00,,BKN027,0.00,VWS V14.01,2013-02-16 18:57:00,
2013-02-16 14:02:00,21.3,12.7,30.04,West,267,2.0,4.0,69,0.00,,BKN027,0.00,VWS V14.01,2013-02-16 19:02:00,
2013-02-16 14:07:00,21.5,12.9,30.04,West,259,2.0,6.0,69,0.00,,BKN027,0.00,VWS V14.01,2013-02-16 19:07:00,
2013-02-16 14:12:00,21.8,13.2,30.04,SW,233,6.0,6.0,69,0.00,,,0.00,VWS V14.01,2013-02-16 19:12:00,
2013-02-16 14:17:00,21.8,12.9,30.04,West,265,11.0,11.0,68,0.00,,,0.00,VWS V14.01,2013-02-16 19:17:00,
2013-02-16 14:22:00,21.8,12.5,30.04,West,274,1.0,2.0,67,0.00,,,0.00,VWS V14.01,2013-02-16 19:22:00,
2013-02-16 14:27:00,22.5,14.5,30.04,NW,315,9.0,11.0,71,0.00,,,0.00,VWS V14.01,2013-02-16 19:27:00,
2013-02-16 14:32:00,22.6,15.6,30.04,NNW,328,9.0,12.0,74,0.00,,,0.00,VWS V14.01,2013-02-16 19:32:00,
2013-02-16 14:37:00,22.2,15.5,30.04,North,351,0.0,2.0,75,0.00,,,0.00,VWS V14.01,2013-02-16 19:37:00,
2013-02-16 14:42:00,22.2,15.8,30.04,NNW,332,0.0,1.0,76,0.00,,,0.00,VWS V14.01,2013-02-16 19:42:00,
2013-02-16 14:47:00,22.0,15.6,30.04,NW,323,0.0,1.0,76,0.00,,,0.00,VWS V14.01,2013-02-16 19:47:00,
2013-02-16 14:52:00,21.9,15.5,30.04,NNW,337,1.0,1.0,76,0.00,,,0.00,VWS V14.01,2013-02-16 19:52:00,
2013-02-16 14:57:00,21.8,15.7,30.04,NW,326,0.0,1.0,77,0.00,,,0.00,VWS V14.01,2013-02-16 19:57:00,
2013-02-16 15:02:00,22.0,16.2,30.04,NW,318,5.0,11.0,78,0.00,,,0.00,VWS V14.01,2013-02-16 20:02:00,
2013-02-16 15:07:00,22.1,16.3,30.04,NNW,336,12.0,12.0,78,0.00,,,0.00,VWS V14.01,2013-02-16 20:07:00,
2013-02-16 15:13:00,21.6,15.5,30.04,NW,310,12.0,12.0,77,0.00,,,0.00,VWS V14.01,2013-02-16 20:13:00,
2013-02-16 15:18:00,21.1,15.6,30.04,NW,320,3.0,10.0,79,0.00,,,0.00,VWS V14.01,2013-02-16 20:18:00,
2013-02-16 15:23:00,20.7,15.5,30.04,NNW,334,1.0,1.0,80,0.00,,,0.00,VWS V14.01,2013-02-16 20:23:00,
2013-02-16 15:28:00,20.3,15.1,30.04,North,351,0.0,0.0,80,0.00,,,0.00,VWS V14.01,2013-02-16 20:28:00,
2013-02-16 15:33:00,19.9,14.7,30.04,NW,324,0.0,1.0,80,0.00,,,0.00,VWS V14.01,2013-02-16 20:33:00,
2013-02-16 15:38:00,19.7,14.5,30.04,NW,324,0.0,0.0,80,0.00,,,0.00,VWS V14.01,2013-02-16 20:38:00,
2013-02-16 15:43:00,19.6,14.4,30.04,NW,324,0.0,0.0,80,0.00,,,0.00,VWS V14.01,2013-02-16 20:43:00,
2013-02-16 15:48:00,19.5,14.4,30.04,NW,324,0.0,0.0,80,0.00,,,0.00,VWS V14.01,2013-02-16 20:48:00,
2013-02-16 15:53:00,19.4,14.2,30.04,NW,318,0.0,0.0,80,0.00,,,0.00,VWS V14.01,2013-02-16 20:53:00,
2013-02-16 15:58:00,19.4,14.2,30.04,WSW,258,1.0,1.0,80,0.00,,,0.00,VWS V14.01,2013-02-16 20:58:00,
2013-02-16 16:03:00,19.5,14.6,30.04,WNW,288,1.0,8.0,81,0.00,,,0.00,VWS V14.01,2013-02-16 21:03:00,
2013-02-16 16:08:00,19.5,14.9,30.04,WNW,303,1.0,8.0,82,0.00,,,0.00,VWS V14.01,2013-02-16 21:08:00,
2013-02-16 16:13:00,19.5,14.9,30.04,West,267,0.0,2.0,82,0.00,,,0.00,VWS V14.01,2013-02-16 21:13:00,
2013-02-16 16:18:00,19.2,14.6,30.05,West,261,0.0,1.0,82,0.00,,,0.00,VWS V14.01,2013-02-16 21:18:00,
2013-02-16 16:24:00,19.0,14.4,30.05,West,263,0.0,0.0,82,0.00,,,0.00,VWS V14.01,2013-02-16 21:24:00,
2013-02-16 16:29:00,18.9,14.3,30.05,West,266,0.0,0.0,82,0.00,,,0.00,VWS V14.01,2013-02-16 21:29:00,
2013-02-16 16:34:00,18.9,14.3,30.05,WSW,240,1.0,8.0,82,0.00,,SCT060,0.00,VWS V14.01,2013-02-16 21:34:00,
2013-02-16 16:39:00,19.0,14.4,30.05,WSW,256,1.0,2.0,82,0.00,,SCT060,0.00,VWS V14.01,2013-02-16 21:39:00,
2013-02-16 16:44:00,19.2,14.3,30.05,WSW,255,0.0,1.0,81,0.00,,SCT060,0.00,VWS V14.01,2013-02-16 21:44:00,
2013-02-16 16:49:00,19.4,14.5,30.05,West,262,0.0,2.0,81,0.00,,SCT060,0.00,VWS V14.01,2013-02-16 21:49:00,
2013-02-16 16:54:00,19.6,14.7,30.05,West,278,5.0,5.0,81,0.00,,SCT060,0.00,VWS V14.01,2013-02-16 21:54:00,
2013-02-16 16:59:00,19.6,14.4,30.05,SW,236,0.0,1.0,80,0.00,,SCT060,0.00,VWS V14.01,2013-02-16 21:59:00,
2013-02-16 17:04:00,19.6,14.4,30.06,WNW,301,0.0,4.0,80,0.00,,SCT055,0.00,VWS V14.01,2013-02-16 22:04:00,
2013-02-16 17:09:00,19.5,14.4,30.06,WNW,282,0.0,0.0,80,0.00,,SCT055,0.00,VWS V14.01,2013-02-16 22:09:00,
2013-02-16 17:14:00,19.5,14.4,30.06,West,270,0.0,6.0,80,0.00,,SCT055,0.00,VWS V14.01,2013-02-16 22:14:00,
2013-02-16 17:19:00,19.4,14.2,30.05,West,280,0.0,7.0,80,0.00,,SCT055,0.00,VWS V14.01,2013-02-16 22:19:00,
2013-02-16 17:24:00,19.4,14.2,30.06,WSW,258,10.0,11.0,80,0.00,,SCT055,0.00,VWS V14.01,2013-02-16 22:24:00,
2013-02-16 17:29:00,19.3,14.1,30.06,West,271,1.0,2.0,80,0.00,,SCT055,0.00,VWS V14.01,2013-02-16 22:29:00,
2013-02-16 17:34:00,19.1,14.0,30.06,West,270,0.0,0.0,80,0.00,,SCT055,0.00,VWS V14.01,2013-02-16 22:34:00,
2013-02-16 17:39:00,19.1,14.0,30.06,West,261,0.0,1.0,80,0.00,,SCT055,0.00,VWS V14.01,2013-02-16 22:39:00,
2013-02-16 17:45:00,18.9,13.5,30.06,West,263,0.0,0.0,79,0.00,,SCT055,0.00,VWS V14.01,2013-02-16 22:45:00,
2013-02-16 17:50:00,18.9,13.5,30.06,West,266,0.0,1.0,79,0.00,,SCT055,0.00,VWS V14.01,2013-02-16 22:50:00,
2013-02-16 17:55:00,18.7,13.3,30.06,West,267,0.0,1.0,79,0.00,,SCT055,0.00,VWS V14.01,2013-02-16 22:55:00,
2013-02-16 18:00:00,18.6,13.2,30.06,West,265,0.0,0.0,79,0.00,,SCT055,0.00,VWS V14.01,2013-02-16 23:00:00,
2013-02-16 18:05:00,18.5,13.1,30.07,West,266,0.0,0.0,79,0.00,,SCT055,0.00,VWS V14.01,2013-02-16 23:05:00,
2013-02-16 18:10:00,18.5,13.1,30.07,WSW,257,0.0,0.0,79,0.00,,SCT055,0.00,VWS V14.01,2013-02-16 23:10:00,
2013-02-16 18:15:00,18.4,13.0,30.07,West,265,0.0,0.0,79,0.00,,SCT055,0.00,VWS V14.01,2013-02-16 23:15:00,
2013-02-16 18:20:00,18.2,13.1,30.07,West,259,7.0,9.0,80,0.00,,SCT055,0.00,VWS V14.01,2013-02-16 23:20:00,
2013-02-16 18:25:00,18.4,13.3,30.07,West,264,4.0,11.0,80,0.00,,SCT055,0.00,VWS V14.01,2013-02-16 23:25:00,
2013-02-16 18:30:00,18.6,13.8,30.08,WNW,292,10.0,12.0,81,0.00,,SCT055,0.00,VWS V14.01,2013-02-16 23:30:00,
2013-02-16 18:35:00,18.6,14.0,30.08,WNW,296,0.0,0.0,82,0.00,,SCT055,0.00,VWS V14.01,2013-02-16 23:35:00,
2013-02-16 18:40:00,18.6,14.0,30.08,WNW,298,0.0,0.0,82,0.00,,SCT055,0.00,VWS V14.01,2013-02-16 23:40:00,
2013-02-16 18:45:00,18.6,14.0,30.08,WNW,298,0.0,0.0,82,0.00,,SCT055,0.00,VWS V14.01,2013-02-16 23:45:00,
2013-02-16 18:50:00,18.5,14.2,30.08,WNW,297,0.0,0.0,83,0.00,,SCT055,0.00,VWS V14.01,2013-02-16 23:50:00,
2013-02-16 18:55:00,18.5,14.2,30.08,WNW,290,0.0,0.0,83,0.00,,SCT055,0.00,VWS V14.01,2013-02-16 23:55:00,
2013-02-16 19:00:00,18.4,14.1,30.08,WNW,302,1.0,1.0,83,0.00,,SCT055,0.00,VWS V14.01,2013-02-17 00:00:00,
2013-02-16 19:05:00,18.3,14.0,30.08,WNW,301,0.0,0.0,83,0.00,,SCT055,0.00,VWS V14.01,2013-02-17 00:05:00,
2013-02-16 19:10:00,18.1,13.8,30.09,WNW,292,0.0,1.0,83,0.00,,SCT055,0.00,VWS V14.01,2013-02-17 00:10:00,
2013-02-16 19:15:00,17.9,13.6,30.09,WNW,303,7.0,8.0,83,0.00,,SCT055,0.00,VWS V14.01,2013-02-17 00:15:00,
2013-02-16 19:20:00,17.8,13.5,30.09,WNW,282,0.0,0.0,83,0.00,,SCT055,0.00,VWS V14.01,2013-02-17 00:20:00,
2013-02-16 19:25:00,17.6,13.3,30.09,NW,304,0.0,0.0,83,0.00,,,0.00,VWS V14.01,2013-02-17 00:25:00,
2013-02-16 19:30:00,17.5,13.2,30.09,WNW,292,1.0,8.0,83,0.00,,,0.00,VWS V14.01,2013-02-17 00:30:00,
2013-02-16 19:36:00,17.5,13.2,30.09,WNW,295,0.0,0.0,83,0.00,,,0.00,VWS V14.01,2013-02-17 00:36:00,
2013-02-16 19:41:00,17.4,13.1,30.09,West,276,0.0,6.0,83,0.00,,,0.00,VWS V14.01,2013-02-17 00:41:00,
2013-02-16 19:46:00,17.3,13.0,30.09,WNW,289,1.0,8.0,83,0.00,,,0.00,VWS V14.01,2013-02-17 00:46:00,
2013-02-16 19:51:00,17.2,12.9,30.09,WNW,290,0.0,6.0,83,0.00,,,0.00,VWS V14.01,2013-02-17 00:51:00,
2013-02-16 19:56:00,17.1,12.8,30.09,WNW,285,0.0,0.0,83,0.00,,BKN036,0.00,VWS V14.01,2013-02-17 00:56:00,
2013-02-16 20:01:00,17.1,12.8,30.08,West,280,0.0,1.0,83,0.00,,BKN036,0.00,VWS V14.01,2013-02-17 01:01:00,
2013-02-16 20:06:00,17.1,12.8,30.09,West,278,5.0,7.0,83,0.00,,BKN036,0.00,VWS V14.01,2013-02-17 01:06:00,
2013-02-16 20:11:00,17.0,12.7,30.09,WNW,300,0.0,1.0,83,0.00,,BKN036,0.00,VWS V14.01,2013-02-17 01:11:00,
2013-02-16 20:16:00,17.0,12.5,30.09,WNW,301,0.0,1.0,82,0.00,,BKN036,0.00,VWS V14.01,2013-02-17 01:16:00,
2013-02-16 20:21:00,16.9,12.4,30.09,NW,304,0.0,0.0,82,0.00,,OVC055,0.00,VWS V14.01,2013-02-17 01:21:00,
2013-02-16 20:26:00,16.9,12.6,30.09,NW,311,0.0,7.0,83,0.00,,OVC055,0.00,VWS V14.01,2013-02-17 01:26:00,
2013-02-16 20:31:00,16.8,12.5,30.09,WNW,303,0.0,8.0,83,0.00,,OVC055,0.00,VWS V14.01,2013-02-17 01:31:00,
2013-02-16 20:36:00,16.7,12.4,30.09,WNW,303,0.0,3.0,83,0.00,,OVC055,0.00,VWS V14.01,2013-02-17 01:36:00,
2013-02-16 20:41:00,16.6,12.4,30.09,NW,315,0.0,7.0,83,0.00,,OVC055,0.00,VWS V14.01,2013-02-17 01:41:00,
2013-02-16 20:46:00,16.6,12.4,30.09,NW,313,0.0,0.0,83,0.00,,OVC055,0.00,VWS V14.01,2013-02-17 01:46:00,
2013-02-16 20:51:00,16.4,12.1,30.09,NW,309,0.0,0.0,83,0.00,,OVC055,0.00,VWS V14.01,2013-02-17 01:51:00,
2013-02-16 20:56:00,16.3,12.1,30.09,WNW,301,0.0,0.0,83,0.00,,OVC055,0.00,VWS V14.01,2013-02-17 01:56:00,
2013-02-16 21:01:00,16.1,11.9,30.09,WNW,301,4.0,7.0,83,0.00,,OVC055,0.00,VWS V14.01,2013-02-17 02:01:00,
2013-02-16 21:06:00,15.9,11.7,30.10,NW,304,0.0,0.0,83,0.00,,OVC055,0.00,VWS V14.01,2013-02-17 02:06:00,
2013-02-16 21:11:00,15.7,11.5,30.10,NW,305,0.0,0.0,83,0.00,,OVC055,0.00,VWS V14.01,2013-02-17 02:11:00,
2013-02-16 21:16:00,15.6,11.4,30.10,WNW,299,0.0,6.0,83,0.00,,OVC055,0.00,VWS V14.01,2013-02-17 02:16:00,
2013-02-16 21:22:00,15.4,11.2,30.10,WNW,300,0.0,0.0,83,0.00,,SCT013,0.00,VWS V14.01,2013-02-17 02:22:00,
2013-02-16 21:27:00,15.3,11.1,30.10,WNW,301,0.0,0.0,83,0.00,,SCT013,0.00,VWS V14.01,2013-02-17 02:27:00,
2013-02-16 21:32:00,15.1,10.9,30.10,WNW,301,0.0,0.0,83,0.00,,SCT013,0.00,VWS V14.01,2013-02-17 02:32:00,
2013-02-16 21:37:00,14.9,10.7,30.10,NW,317,0.0,0.0,83,0.00,,SCT013,0.00,VWS V14.01,2013-02-17 02:37:00,
2013-02-16 21:42:00,14.8,10.6,30.10,NW,314,0.0,0.0,83,0.00,,SCT013,0.00,VWS V14.01,2013-02-17 02:42:00,
2013-02-16 21:47:00,14.6,10.4,30.10,NW,315,0.0,0.0,83,0.00,,SCT013,0.00,VWS V14.01,2013-02-17 02:47:00,
2013-02-16 21:52:00,14.5,10.3,30.10,NW,315,0.0,0.0,83,0.00,,SCT013,0.00,VWS V14.01,2013-02-17 02:52:00,
2013-02-16 21:57:00,14.4,10.5,30.10,NW,315,0.0,0.0,84,0.00,,SCT013,0.00,VWS V14.01,2013-02-17 02:57:00,
2013-02-16 22:02:00,14.2,10.3,30.11,NW,315,0.0,0.0,84,0.00,,SCT013,0.00,VWS V14.01,2013-02-17 03:02:00,
2013-02-16 22:07:00,14.0,10.1,30.11,NW,315,0.0,0.0,84,0.00,,SCT013,0.00,VWS V14.01,2013-02-17 03:07:00,
2013-02-16 22:12:00,13.8,9.9,30.11,NW,315,0.0,0.0,84,0.00,,SCT013,0.00,VWS V14.01,2013-02-17 03:12:00,
2013-02-16 22:17:00,13.6,9.7,30.11,NW,315,0.0,0.0,84,0.00,,SCT013,0.00,VWS V14.01,2013-02-17 03:17:00,
2013-02-16 22:23:00,13.5,9.6,30.11,NW,315,0.0,0.0,84,0.00,,FEW016,0.00,VWS V14.01,2013-02-17 03:23:00,
2013-02-16 22:28:00,13.3,9.4,30.12,NW,315,0.0,0.0,84,0.00,,FEW016,0.00,VWS V14.01,2013-02-17 03:28:00,
2013-02-16 22:33:00,13.2,9.3,30.11,NW,315,0.0,0.0,84,0.00,,FEW016,0.00,VWS V14.01,2013-02-17 03:33:00,
2013-02-16 22:38:00,13.1,9.2,30.11,NW,315,0.0,0.0,84,0.00,,FEW016,0.00,VWS V14.01,2013-02-17 03:38:00,
2013-02-16 22:43:00,13.0,9.1,30.12,NW,315,0.0,0.0,84,0.00,,FEW016,0.00,VWS V14.01,2013-02-17 03:43:00,
2013-02-16 22:48:00,12.8,8.9,30.12,NW,315,0.0,0.0,84,0.00,,FEW016,0.00,VWS V14.01,2013-02-17 03:48:00,
2013-02-16 22:53:00,12.7,8.8,30.12,NW,315,0.0,0.0,84,0.00,,FEW016,0.00,VWS V14.01,2013-02-17 03:53:00,
2013-02-16 22:58:00,12.5,8.6,30.12,NW,315,0.0,0.0,84,0.00,,FEW016,0.00,VWS V14.01,2013-02-17 03:58:00,
2013-02-16 23:03:00,12.4,8.5,30.12,NW,315,0.0,0.0,84,0.00,,SCT070,0.00,VWS V14.01,2013-02-17 04:03:00,
2013-02-16 23:08:00,12.2,8.3,30.12,NW,315,0.0,0.0,84,0.00,,SCT070,0.00,VWS V14.01,2013-02-17 04:08:00,
2013-02-16 23:13:00,12.1,8.2,30.12,NW,315,0.0,0.0,84,0.00,,SCT070,0.00,VWS V14.01,2013-02-17 04:13:00,
2013-02-16 23:18:00,11.9,8.0,30.12,NW,315,0.0,0.0,84,0.00,,SCT070,0.00,VWS V14.01,2013-02-17 04:18:00,
2013-02-16 23:23:00,11.8,7.9,30.12,NW,315,0.0,0.0,84,0.00,,SCT070,0.00,VWS V14.01,2013-02-17 04:23:00,
2013-02-16 23:28:00,11.5,7.6,30.12,NW,315,0.0,0.0,84,0.00,,SCT070,0.00,VWS V14.01,2013-02-17 04:28:00,
2013-02-16 23:33:00,11.3,7.4,30.12,NW,315,0.0,0.0,84,0.00,,SCT070,0.00,VWS V14.01,2013-02-17 04:33:00,
2013-02-16 23:38:00,11.0,7.1,30.12,NW,315,0.0,0.0,84,0.00,,SCT070,0.00,VWS V14.01,2013-02-17 04:38:00,
2013-02-16 23:43:00,10.7,6.8,30.12,NW,315,0.0,0.0,84,0.00,,SCT070,0.00,VWS V14.01,2013-02-17 04:43:00,
2013-02-16 23:48:00,10.5,6.6,30.12,NW,315,0.0,0.0,84,0.00,,SCT070,0.00,VWS V14.01,2013-02-17 04:48:00,
2013-02-16 23:53:00,10.1,6.2,30.12,NW,315,0.0,0.0,84,0.00,,SCT070,0.00,VWS V14.01,2013-02-17 04:53:00,
2013-02-16 23:58:00,9.9,5.8,30.12,NW,315,0.0,0.0,83,0.00,,SCT070,0.00,VWS V14.01,2013-02-17 04:58:00,